Location: Irma
(52.9170°N, 111.2330°W)
Time: 23:46:48
(UTC-06:00)

Cosmos 1633 Rocket - Visible Passes

Search period start: 22 July 2014 00:00
Search period end: 01 August 2014 00:00
Orbit: 610 x 625 km, 82.5° (Epoch: 22 July)

Date Brightness Start Highest point End Pass type
(mag) Time Alt. Az. Time Alt. Az. Time Alt. Az.
22 Jul 5.9 02:44:55 10° NNE 02:47:28 15° ENE 02:50:00 10° E visible
22 Jul 3.1 04:21:31 10° NNW 04:26:00 88° W 04:30:26 10° S visible
23 Jul 5.4 03:01:08 10° NNE 03:04:40 22° ENE 03:08:10 10° ESE visible
23 Jul 3.3 04:38:30 10° NNW 04:42:50 53° W 04:47:08 10° S visible
24 Jul 4.6 03:17:41 10° N 03:21:47 35° ENE 03:25:50 10° SE visible
25 Jul 3.7 03:34:24 10° N 03:38:48 56° ENE 03:43:09 10° SSE visible
26 Jul 5.8 02:14:37 10° NNE 02:17:11 15° ENE 02:19:45 10° E visible
26 Jul 3.1 03:51:15 10° NNW 03:55:43 87° W 04:00:09 10° S visible
27 Jul 5.3 02:30:52 10° NNE 02:34:24 23° ENE 02:37:54 10° ESE visible
27 Jul 3.3 04:08:13 10° NNW 04:12:33 52° W 04:16:51 10° S visible
28 Jul 4.5 02:47:24 10° N 02:51:30 35° ENE 02:55:34 10° SE visible
28 Jul 4.0 04:25:21 10° NNW 04:29:18 32° W 04:33:13 10° SSW visible
29 Jul 3.6 03:04:07 10° N 03:08:31 57° ENE 03:12:33 12° SSE visible
29 Jul 4.6 04:42:44 10° NW 04:45:58 20° W 04:49:09 10° SW visible
30 Jul 5.7 01:44:20 10° NNE 01:46:55 15° ENE 01:49:29 10° E visible
30 Jul 3.0 03:20:58 10° NNW 03:25:26 87° W 03:28:52 17° S visible
31 Jul 5.1 02:00:35 10° NNE 02:04:07 23° ENE 02:07:38 10° ESE visible
31 Jul 3.3 03:37:57 10° NNW 03:42:16 52° W 03:45:12 19° SSW visible
